This demonstration page uses our WeatherBlox Daily Observations layout. Learn more.

Left ArrowRight Arrow

Hourly Observations for August 4, 2015

Temp ( °F °C ) Dew Point ( °F °C ) Humidity (%) Winds ( mph kmh ) Pressure ( in mb ) Visibility ( mi km ) Precip ( " mm )
12:53 am 00:53 Partly Cloudy 78 25.6 64 17.8 62 62 SE 8 13 29.82 1010 10 16 0.00 0.00
1:53 am 01:53 Clear 75 23.9 67 19.4 76 76 WSW 6 9 29.83 1010 10 16 0.00 0.00
2:53 am 02:53 Clear 73 22.8 67 19.4 81 81 SW 7 11 29.83 1010 10 16 0.00 0.00
3:53 am 03:53 Clear 72 22.2 69 20.6 91 91 S 5 7 29.83 1010 10 16 0.00 0.00
4:53 am 04:53 Clear 72 22.2 69 20.6 91 91 Calm 29.84 1010 10 16 0.00 0.00
5:53 am 05:53 Clear 71 21.7 68 20 90 90 N 3 6 29.84 1010 7 11 0.00 0.00
6:53 am 06:53 Clear with Mist and Fog 70 21.1 68 20 93 93 NNE 5 7 29.86 1011 6 10 0.00 0.00
7:53 am 07:53 Sunny with Mist and Fog 71 21.7 68 20 90 90 NE 3 6 29.88 1012 5 8 0.00 0.00
8:53 am 08:53 Sunny 76 24.4 68 20 77 77 ESE 3 6 29.88 1012 10 16 0.00 0.00
9:53 am 09:53 Sunny 81 27.2 65 18.3 58 58 SE 9 15 29.88 1012 10 16 0.00 0.00
10:53 am 10:53 Sunny 84 28.9 64 17.8 51 51 S 7 11 29.88 1012 10 16 0.00 0.00
11:53 am 11:53 Sunny 88 31.1 63 17.2 43 43 SSW 6 9 29.86 1011 10 16 0.00 0.00
12:53 pm 12:53 Sunny 92 33.3 62 16.7 37 37 W 7 11 29.83 1010 10 16 0.00 0.00
1:53 pm 13:53 Sunny 94 34.4 59 15 31 31 VRB 3 6 29.82 1010 10 16 0.00 0.00
2:53 pm 14:53 Sunny 98 36.7 59 15 27 27 SSE 7 11 29.80 1009 10 16 0.00 0.00
3:53 pm 15:53 Sunny 99 37.2 59 15 27 27 SSW 7 11 29.78 1008 10 16 0.00 0.00
4:53 pm 16:53 Partly Cloudy 99 37.2 59 15 27 27 VRB 5 7 29.76 1008 10 16 0.00 0.00
5:53 pm 17:53 Sunny 101 38.3 57 13.9 23 23 ESE 10 17 29.75 1007 10 16 0.00 0.00
6:53 pm 18:53 Sunny 100 37.8 54 12.2 21 21 SE 7 11 29.75 1007 10 16 0.00 0.00
7:53 pm 19:53 Sunny 99 37.2 52 11.1 21 21 E 6 9 29.75 1008 10 16 0.00 0.00
8:53 pm 20:53 Clear 94 34.4 53 11.7 25 25 E 7 11 29.76 1008 10 16 0.00 0.00
9:53 pm 21:53 Clear 88 31.1 56 13.3 34 34 ESE 7 11 29.78 1009 10 16 0.00 0.00
10:53 pm 22:53 Clear 88 31.1 59 15 38 38 SE 12 19 29.80 1009 10 16 0.00 0.00
11:53 pm 23:53 Clear 88 31.1 60 15.6 39 39 SSE 16 26 29.81 1010 10 16 0.00 0.00

Powered by AerisWeather